Regional Weather Roundup
Issued by NWS Jackson, KY

Home | Current Version | Previous Version | Graphics & Text | Print | Product List | Glossary On
Versions: 1 2 3 4 5 6 7 8 9 10 11 12 13 14 15 16 17 18 19 20 21 22 23 24 25 26 27 28 29 30 31 32 33 34 35 36 37 38 39 40 41 42 43 44 45 46 47 48 49 50
000
ASUS43 KJKL 181710
RWRJKL

EAST KENTUCKY HOURLY WEATHER ROUNDUP
NATIONAL WEATHER SERVICE JACKSON KY
1200 PM EST THU DEC 18 2014

NOTE: "FAIR" INDICATES FEW OR NO CLOUDS BELOW 12,000 FEET WITH
NO SIGNIFICANT WEATHER AND/OR OBSTRUCTIONS TO VISIBILITY.

* THESE REPORTS ARE NOT UNDER NWS QUALITY CONTROL AND MAY NOT
  REPORT WEATHER SUCH AS PRECIPITATION AND FOG.

KYZ079-080-083-085-087-088-110-112-115-119-120-181800
...EASTERN KENTUCKY...

CITY           SKY/WX    TMP DP  RH WIND       PRES   REMARKS
JACKSON        PTSUNNY   32  23  69 CALM      30.20F
LONDON         CLOUDY    35  26  69 CALM      30.20F
SOMERSET*      CLOUDY    32  27  80 CALM      30.24F
MONTICELLO*    PTSUNNY   35  29  79 N3        30.25F
MIDDLESBORO*   PTSUNNY   38  29  68 CALM      30.20F
HARLAN APT*    MOSUNNY   37  28  70 MISG      30.17F
HAZARD APT*    CLOUDY    34  27  75 CALM      30.21
BLACK MTN*       N/A     34  16  47 NW2         N/A
PIKEVILLE APT* PTSUNNY   34  25  69 NW7       30.19  WCI  28
BIG SANDY*     CLOUDY    33  25  74 NW3       30.23R
MOREHEAD APT*  CLOUDY    32  23  69 CALM      30.25F
$$

KYZ035-036-041-042-044-050-067-078-099-181800
...CENTRAL KENTUCKY...

CITY           SKY/WX    TMP DP  RH WIND       PRES   REMARKS
MT STERLING*   CLOUDY    32  23  69 CALM      30.24F
FLEMING/MASON* CLOUDY    28  21  74 W5        30.27S WCI  23
DANVILLE*      CLOUDY    30  27  86 E3        30.23F
RICHMOND*        N/A    N/A N/A N/A MISG        N/A
LEXINGTON      CLOUDY    31  23  72 E3        30.23F
FRANKFORT      CLOUDY    31  22  69 CALM      30.24F
$$

KYZ091>093-OHZ055-061-077-WVZ005-015-034-035-042-181800
...SOUTHERN OHIO/WEST VIRGINIA...

CITY           SKY/WX    TMP DP  RH WIND       PRES   REMARKS
COVINGTON      CLOUDY    28  18  66 N6        30.27R WCI  22
COLUMBUS       CLOUDY    28  20  71 W6        30.24F WCI  22
DAYTON         CLOUDY    28  20  71 W5        30.25F WCI  23
WILMINGTON     CLOUDY    27  18  69 VRB5      30.23F WCI  22
HUNTINGTON     CLOUDY    31  22  69 N6        30.23F WCI  25
CHARLESTON     CLOUDY    31  21  66 CALM      30.23F
PINEVILLE*     PTSUNNY   37  28  69 MISG      30.21F
BECKLEY        PTSUNNY   31  21  66 CALM      30.12F
BLUEFIELD      PTSUNNY   34  22  61 NW5       30.11F WCI  30
$$

VAZ002-007-008-TNZ017-027-036-066-071-181800
...SOUTHWEST VIRGINIA/EAST TENNESSEE...

CITY           SKY/WX    TMP DP  RH WIND       PRES   REMARKS
WISE*          MOSUNNY   36  27  69 SW3       30.13S
JONESVILLE*    MOSUNNY   37  27  65 CALM      30.20F
ABINGDON*      CLOUDY    36  29  76 CALM      30.15F
BRISTOL        PTSUNNY   38  31  76 NE5       30.17F WCI  34
KNOXVILLE      CLOUDY    40  30  67 CALM      30.19S
CROSSVILLE     CLOUDY    40  30  67 CALM      30.16F
NASHVILLE      CLOUDY    36  32  85 N3        30.24F
$$

...KEY TO REMARKS...
VSB - VISIBILITY IN MILES
WCI - WIND CHILL INDEX
HX  - HEAT INDEX

$$


USA.gov is the U.S. government's official web portal to all federal, state and local government web resources and services.